Plattsburgh, NY

7:15 AM EDT on April 27, 2017 (GMT -0400)
Plattsburgh International

Weather History for KPBG - November, 2011

Change the Weather History Date:

Friday, November 18, 2011

  Actual Average Record
Temperature  
Mean Temperature 36 °F 36 °F  
Max Temperature 42 °F 45 °F 70 °F (1953)
Min Temperature 29 °F 27 °F 15 °F (1959)
Degree Days  
Heating Degree Days 29 29  
Month to date heating degree days 389 467  
Since 1 July heating degree days 996 1250  
Cooling Degree Days 0 0  
Month to date cooling degree days 0  
Year to date cooling degree days 346  
Moisture  
Dew Point 20 °F    
Average Humidity 52    
Maximum Humidity 69    
Minimum Humidity 34    
Precipitation  
Precipitation T in - 0.53 in (1968)
Month to date precipitation 0.66  
Year to date precipitation 36.69  
Sea Level Pressure  
Sea Level Pressure 30.17 in    
Wind  
Wind Speed 5 mph (SW)    
Max Wind Speed 14 mph    
Max Gust Speed 25 mph    
Visibility 10 miles    
Events      
T = Trace of Precipitation, MM = Missing Value Source: NWS Daily Summary

Daily Weather History Graph

Daily Weather History Graph

Search for Another Location

Airport or City:

Trip Planner

Search our weather history database for the weather conditions in past years. The results will help you decide how hot, cold, wet, or windy it might be!

Date:

Astronomy

Nov. 18, 2011 Rise Set
Actual Time 6:54 AM EST 4:23 PM EST
Civil Twilight 6:22 AM EST 4:55 PM EST
Nautical Twilight 5:46 AM EST 5:30 PM EST
Astronomical Twilight 5:12 AM EST 6:05 PM EST
Moon 11:57 PM EST (11/18) 12:24 PM EST (11/18)
Length of Visible Light 10h 32m
Length of Day
9h 29m
Waning Gibbous, 49% of the Moon is Illuminated
Nov 18
Waning Gibbous
Nov 25
New
Dec 2
First Quarter
Dec 10
Full
Dec 17
Last Quarter

Hourly Weather History & Observations

Time (EST) Temp. Windchill Dew Point Humidity Pressure Visibility Wind Dir Wind Speed Gust Speed Precip Events Conditions
12:53 AM 32.0 °F 26.4 °F 21.9 °F 66% 29.91 in 10.0 mi Variable 5.8 mph - N/A   Clear
1:53 AM 32.0 °F 27.5 °F 21.9 °F 66% 29.94 in 10.0 mi Variable 4.6 mph - N/A   Clear
2:53 AM 32.0 °F - 21.9 °F 66% 29.97 in 10.0 mi Calm Calm - N/A   Clear
5:53 AM 33.1 °F 25.5 °F 19.0 °F 56% 30.07 in 10.0 mi WNW 9.2 mph 17.3 mph N/A   Clear
6:53 AM 30.9 °F - 19.9 °F 64% 30.12 in 10.0 mi Calm Calm - N/A   Clear
7:53 AM 32.0 °F - 23.0 °F 69% 30.16 in 10.0 mi Calm Calm - N/A   Clear
8:53 AM 36.0 °F 29.6 °F 21.9 °F 57% 30.19 in 10.0 mi WSW 8.1 mph - N/A   Clear
9:53 AM 37.0 °F 29.3 °F 21.0 °F 52% 30.19 in 10.0 mi West 11.5 mph 19.6 mph N/A   Scattered Clouds
11:53 AM 39.9 °F 33.4 °F 19.9 °F 45% 30.22 in 10.0 mi West 10.4 mph 16.1 mph 0.00 in   Partly Cloudy
12:53 PM 41.0 °F 35.8 °F 18.0 °F 40% 30.22 in 10.0 mi WSW 8.1 mph 18.4 mph N/A   Scattered Clouds
1:53 PM 41.0 °F 37.1 °F 16.0 °F 36% 30.21 in 10.0 mi Variable 5.8 mph - N/A   Mostly Cloudy
2:53 PM 39.9 °F 35.1 °F 17.1 °F 40% 30.22 in 10.0 mi Variable 6.9 mph - N/A   Overcast
3:53 PM 39.9 °F 37.8 °F 18.0 °F 41% 30.22 in 10.0 mi Variable 3.5 mph - N/A   Mostly Cloudy
4:53 PM 39.0 °F - 18.0 °F 43% 30.25 in 10.0 mi Calm Calm - N/A   Mostly Cloudy
5:53 PM 37.9 °F 32.1 °F 21.9 °F 53% 30.26 in 10.0 mi SW 8.1 mph - N/A   Partly Cloudy
6:53 PM 36.0 °F 32.1 °F 21.9 °F 57% 30.26 in 10.0 mi South 4.6 mph - N/A   Clear
7:53 PM 36.0 °F 32.1 °F 19.9 °F 52% 30.26 in 10.0 mi South 4.6 mph - N/A   Clear
8:53 PM 36.0 °F 33.3 °F 19.9 °F 52% 30.25 in 10.0 mi SSW 3.5 mph - N/A   Clear
9:53 PM 33.1 °F 27.7 °F 19.9 °F 59% 30.25 in 10.0 mi South 5.8 mph - N/A   Clear
10:53 PM 32.0 °F - 21.0 °F 64% 30.22 in 10.0 mi Calm Calm - N/A   Mostly Cloudy
11:53 PM 34.0 °F 29.8 °F 19.9 °F 56% 30.21 in 10.0 mi SSW 4.6 mph - N/A   Overcast